FW1090 Weather Reports


time (UTC)temp
C
wind
direction
speed
KPH
gust
KPH
rain 1hr
cm
rain 24hr
cm
rain mn
cm
humidity
%
barometer
mb
20260505101551 10 254 1.6 14.5 0.00 0.00 0.00 95 997.0
20260505100039 9 240 0.0 0.0 0.00 0.00 0.00 95 997.1
20260505094539 8 274 0.0 0.0 0.00 0.00 0.00 95 996.9
20260505093041 8 274 0.0 0.0 0.00 0.00 0.00 94 996.7
20260505091538 8 274 0.0 0.0 0.00 0.00 0.00 94 996.7
20260505090043 8 274 0.0 0.0 0.00 0.00 0.00 94 996.5
20260505084529 9 273 0.0 0.0 0.00 0.00 0.00 94 996.5
20260505083029 10 274 0.0 0.0 0.00 0.00 0.00 93 996.5
20260505081530 10 274 0.0 0.0 0.00 0.00 0.00 93 996.5
20260505080027 10 274 0.0 0.0 0.00 0.00 0.00 92 996.5
20260505074521 10 274 0.0 0.0 0.00 0.00 0.00 92 996.5
20260505073018 11 274 0.0 0.0 0.00 0.00 0.00 92 996.2
20260505071514 11 274 0.0 0.0 0.00 0.00 0.00 91 996.1
20260505070013 11 273 0.0 0.0 0.00 0.00 0.00 91 996.0
20260505064511 12 271 0.0 0.0 0.00 0.00 0.00 90 995.7
20260505063009 12 294 0.0 0.0 0.00 0.00 0.00 89 995.5
20260505061507 12 259 0.0 0.0 0.00 0.00 0.00 89 995.5
20260505060018 13 272 0.0 0.0 0.00 0.00 0.00 88 995.2
20260505054504 13 271 0.0 0.0 0.00 0.00 0.00 87 995.3
20260505053003 13 260 0.0 0.0 0.00 0.00 0.00 86 995.0
20260505051502 14 253 0.0 0.0 0.00 0.00 0.00 86 995.0
20260505041600 16 243 0.0 0.0 0.00 0.00 0.00 81 994.5
20260505040104 17 229 0.0 0.0 0.00 0.00 0.00 79 994.2
20260505034559 17 233 0.0 0.0 0.00 0.00 0.00 77 994.1
20260505033115 18 266 0.0 0.0 0.00 0.00 0.00 76 993.7
20260505031557 20 227 0.0 0.0 0.00 0.00 0.00 73 993.5
20260505030057 21 250 0.0 0.0 0.00 0.00 0.00 69 993.2
20260505024604 22 281 0.0 0.0 0.00 0.00 0.00 67 993.0
20260505023106 23 262 0.0 0.0 0.00 0.00 0.00 65 992.9
20260505021557 23 252 0.0 6.4 0.00 0.00 0.00 64 992.9
20260505020056 23 284 4.8 16.1 0.00 0.00 0.00 62 992.8
20260505014554 24 302 0.0 0.0 0.00 0.00 0.00 60 992.8
20260505013053 25 253 0.0 0.0 0.00 0.00 0.00 57 992.8
20260505011559 25 283 0.0 12.9 0.00 0.00 0.00 54 992.9
20260505010054 25 304 0.0 9.7 0.00 0.00 0.00 54 993.0
20260505004554 25 285 0.0 0.0 0.00 0.00 0.00 53 993.0
20260505003050 25 294 0.0 0.0 0.00 0.00 0.00 51 992.8
20260505001549 25 212 0.0 0.0 0.00 0.00 0.00 53 992.8
20260505000050 25 273 0.0 12.9 0.00 0.00 0.00 53 992.9
20260504234612 26 303 0.0 9.7 0.00 0.00 0.00 50 992.9
20260504233050 26 333 0.0 9.7 0.00 0.00 0.00 53 993.0
20260504231554 26 300 0.0 11.3 0.00 0.00 0.00 57 993.1
20260504230045 25 338 3.2 11.3 0.00 0.00 0.00 56 993.2
20260504224545 26 18 0.0 0.0 0.00 0.00 0.00 52 993.4
20260504223043 26 336 0.0 0.0 0.00 0.00 0.00 53 993.5
20260504221549 25 238 1.6 9.7 0.00 0.00 0.00 53 993.6
20260504220041 25 252 0.0 9.7 0.00 0.00 0.00 54 993.8
20260504214542 25 174 0.0 9.7 0.00 0.00 0.00 50 993.9
20260504213039 24 274 0.0 1.6 0.00 0.00 0.00 56 993.9
20260504211539 25 295 4.8 14.5 0.00 0.00 0.00 52 994.0
20260504210033 24 117 0.0 4.8 0.00 0.00 0.00 59 994.0
20260504204611 23 277 0.0 4.8 0.00 0.00 0.00 57 994.0
20260504203032 24 266 0.0 9.7 0.00 0.00 0.00 55 994.1
20260504201530 24 255 1.6 6.4 0.00 0.00 0.00 58 994.2
20260504200035 24 278 0.0 11.3 0.00 0.00 0.00 60 994.2
20260504194528 23 261 0.0 8.0 0.00 0.00 0.00 59 994.4
20260504193026 23 323 0.0 6.4 0.00 0.00 0.00 57 994.4
20260504191528 23 244 0.0 3.2 0.00 0.00 0.00 59 994.5
20260504190023 23 245 0.0 8.0 0.00 0.00 0.00 61 994.6
20260504184521 22 262 0.0 11.3 0.00 0.00 0.00 64 994.7
20260504183020 22 232 0.0 0.0 0.00 0.00 0.00 62 994.8
20260504181518 22 250 0.0 0.0 0.00 0.00 0.00 62 994.8
20260504180016 21 245 0.0 4.8 0.00 0.00 0.00 66 994.8
20260504174512 20 176 0.0 0.0 0.00 0.00 0.00 66 994.7
20260504173009 20 265 0.0 0.0 0.00 0.00 0.00 64 994.7
20260504171531 20 302 0.0 9.7 0.00 0.00 0.00 67 994.8
20260504140133 10 64 0.0 0.0 0.00 0.00 0.00 91 993.6